sat.trackr.live / text

‹ back to catalog

STARLINK-11158 [DTC]

NORAD 60403 · 2024-141F

PAYLOAD ACTIVE UNKNOWN

§ Identity

Operator
Country
US
Launch date
2024-08-10
Launch site
AFETR
Launch vehicle
Mass (kg)
RCS (m²)

Purposes: comms

External: N2YO · Heavens-Above · Gunter

§ Orbital elements

Epoch: 2026-05-25T04:36:34.032384Z

Period
91.74 min
Inclination
53.1583°
Eccentricity
0.0000824
Mean motion
15.69704666 rev/d
Perigee alt
359.2 km
Apogee alt
360.3 km
Semi-major
6,737.9 km
B*
6.9333e-6
RAAN
69.4874°
Arg perigee
87.9678°
Mean anomaly
272.1434°
Rev number
10,370

§ Raw data

STARLINK-11158 [DTC]1 60403U 24141F   26145.19206056  .00000252  00000+0  69333-5 0  99992 60403  53.1583  69.4874 0000824  87.9678 272.1434 15.69704666103701

JSON: /api/v1/satellites/60403 · /tle

For live sub-satellite position, see the globe view (requires WebGL).

§ Visibility from observer

Set your observer location to see the next 7 days of passes ≥ 10°. The values pass through the URL so the page stays shareable.

No JS? Fill the form by hand. The geolocation button needs JavaScript.